FW5725 Weather Reports


Display with metric or nautical units.
time (UTC)temp
F
wind
direction
speed
MPH
gust
MPH
rain 1hr
in
rain 24hr
in
rain mn
in
humidity
%
barometer
mb
20260507105405 66 279 3.0 7.0 0.00 0.00 0.00 67 1013.1
20260507104905 66 284 4.0 8.0 0.00 0.00 0.00 66 1013.1
20260507104405 66 248 3.0 8.0 0.00 0.00 0.00 67 1013.1
20260507104353 66 300 3.0 7.0 0.00 0.00 0.00 68 1013.1
20260507103354 66 288 3.0 7.0 0.00 0.00 0.00 69 1013.1
20260507102848 65 281 3.0 7.0 0.00 0.00 0.00 68 1013.0
20260507102343 65 227 3.0 8.0 0.00 0.00 0.00 68 1013.1
20260507101836 66 219 4.0 10.0 0.00 0.00 0.00 68 1013.1
20260507101336 67 242 2.0 10.0 0.00 0.00 0.00 67 1013.0
20260507101055 66 286 2.0 8.0 0.00 0.00 0.00 69 1013.0
20260507100334 66 275 4.0 8.0 0.00 0.00 0.00 69 1013.1
20260507095835 65 290 3.0 7.0 0.00 0.00 0.00 70 1013.0
20260507095332 65 298 3.0 9.0 0.00 0.00 0.00 70 1012.9
20260507094832 65 266 4.0 10.0 0.00 0.00 0.00 71 1012.9
20260507094332 65 288 4.0 10.0 0.00 0.00 0.00 70 1012.8
20260507093832 64 286 3.0 8.0 0.00 0.00 0.00 73 1012.8
20260507093330 64 287 3.0 8.0 0.00 0.00 0.00 73 1012.9
20260507092831 64 286 4.0 8.0 0.00 0.00 0.00 73 1012.8
20260507092600 64 278 3.0 8.0 0.00 0.00 0.00 74 1012.8
20260507092055 64 338 2.0 6.0 0.00 0.00 0.00 76 1012.7
20260507091329 63 279 1.0 6.0 0.00 0.00 0.00 77 1012.7
20260507090830 63 340 1.0 6.0 0.00 0.00 0.00 78 1012.7
20260507090334 62 337 1.0 5.0 0.00 0.00 0.00 78 1012.7
20260507085833 62 337 1.0 8.0 0.00 0.00 0.00 80 1012.7
20260507085331 62 346 2.0 8.0 0.00 0.00 0.00 80 1012.6
20260507084826 62 333 3.0 7.0 0.00 0.00 0.00 81 1012.6
20260507084320 61 332 2.0 6.0 0.00 0.00 0.00 81 1012.6
20260507083817 61 348 2.0 6.0 0.00 0.00 0.00 82 1012.5
20260507083318 61 301 3.0 5.0 0.00 0.00 0.00 82 1012.5
20260507082818 61 301 2.0 5.0 0.00 0.00 0.00 82 1012.5
20260507082316 61 301 1.0 5.0 0.00 0.00 0.00 82 1012.3
20260507081814 61 296 2.0 7.0 0.00 0.00 0.00 82 1012.3
20260507081314 61 298 4.0 8.0 0.00 0.00 0.00 83 1012.2
20260507080812 61 313 4.0 8.0 0.00 0.00 0.00 83 1012.2
20260507080312 61 299 4.0 8.0 0.00 0.00 0.00 83 1012.1
20260507075810 61 292 4.0 8.0 0.00 0.00 0.00 83 1012.1
20260507075310 60 289 4.0 8.0 0.00 0.00 0.00 83 1012.1
20260507074810 60 287 2.0 7.0 0.00 0.00 0.00 84 1012.0
20260507074536 60 282 2.0 6.0 0.00 0.00 0.00 84 1011.9
20260507073806 60 279 3.0 6.0 0.00 0.00 0.00 84 1011.8
20260507073306 60 279 3.0 7.0 0.00 0.00 0.00 84 1011.9
20260507072806 60 277 4.0 9.0 0.00 0.00 0.00 84 1011.7
20260507072306 60 278 4.0 10.0 0.00 0.00 0.00 84 1011.8
20260507071802 60 304 5.0 10.0 0.00 0.00 0.00 84 1011.7
20260507071302 60 273 4.0 9.0 0.00 0.00 0.00 84 1011.6
20260507070802 60 284 3.0 6.0 0.00 0.00 0.00 84 1011.5
20260507070539 60 277 3.0 8.0 0.00 0.00 0.00 84 1011.4
20260507065802 59 278 4.0 9.0 0.00 0.00 0.00 85 1011.4
20260507065305 59 302 4.0 9.0 0.00 0.00 0.00 85 1011.4
20260507064801 59 227 4.0 9.0 0.00 0.00 0.00 84 1011.3
20260507064302 59 282 3.0 8.0 0.00 0.00 0.00 84 1011.3
20260507063801 59 244 3.0 6.0 0.00 0.00 0.00 85 1011.3
20260507063302 58 257 3.0 6.0 0.00 0.00 0.00 84 1011.2
20260507062801 58 260 2.0 5.0 0.00 0.00 0.00 84 1011.2
20260507062306 58 263 1.0 5.0 0.00 0.00 0.00 84 1011.2
20260507062034 58 278 1.0 4.0 0.00 0.00 0.00 84 1011.1
20260507061302 58 278 0.0 4.0 0.00 0.00 0.00 84 1010.9
20260507060801 58 278 0.0 4.0 0.00 0.00 0.00 84 1010.9
20260507060301 58 278 0.0 3.0 0.00 0.00 0.00 84 1010.6
20260507055802 58 278 0.0 0.0 0.00 0.00 0.00 84 1010.6
20260507055305 57 304 0.0 0.0 0.00 0.00 0.00 84 1010.5
20260507054802 57 304 0.0 0.0 0.00 0.00 0.00 84 1010.5
20260507054300 57 304 0.0 0.0 0.00 0.00 0.00 84 1010.5
20260507053801 57 304 0.0 3.0 0.00 0.00 0.00 84 1010.5
20260507053302 57 304 0.0 3.0 0.00 0.00 0.00 84 1010.5
20260507052801 57 304 0.0 3.0 0.00 0.00 0.00 84 1010.5
20260507052536 57 304 0.0 0.0 0.00 0.00 0.00 84 1010.4
20260507052250 57 304 0.0 0.0 0.00 0.00 0.00 83 1010.2
20260507051529 56 304 0.0 0.0 0.00 0.00 0.00 83 1010.1
20260507050801 56 304 0.0 0.0 0.00 0.00 0.00 83 1010.0
20260507050302 56 304 0.0 0.0 0.00 0.00 0.00 83 1009.9
20260507045801 56 304 0.0 0.0 0.00 0.00 0.00 84 1009.9
20260507045301 56 304 0.0 0.0 0.00 0.00 0.00 83 1010.1
20260507044802 56 304 0.0 0.0 0.00 0.00 0.00 83 1010.1
20260507044301 56 304 0.0 0.0 0.00 0.00 0.00 83 1010.0
20260507043805 56 304 0.0 0.0 0.00 0.00 0.00 83 1010.0
20260507043533 56 304 0.0 0.0 0.00 0.00 0.00 83 1010.0
20260507042801 56 304 0.0 0.0 0.00 0.00 0.00 83 1010.0
20260507042515 56 304 0.0 0.0 0.00 0.00 0.00 83 1010.0
20260507041736 56 304 0.0 0.0 0.00 0.00 0.00 83 1010.0
20260507041234 56 304 0.0 0.0 0.00 0.00 0.00 83 1010.0
20260507040734 56 304 0.0 0.0 0.00 0.00 0.00 83 1009.9
20260507040233 56 304 0.0 0.0 0.00 0.00 0.00 83 1009.9
20260507035730 56 304 0.0 0.0 0.00 0.00 0.00 83 1009.8
20260507035230 56 304 0.0 0.0 0.00 0.00 0.00 83 1009.7
20260507034730 56 304 0.0 0.0 0.00 0.00 0.00 83 1009.7
20260507034230 56 304 0.0 0.0 0.00 0.00 0.00 83 1009.7
20260507033734 56 304 0.0 0.0 0.00 0.00 0.00 84 1009.5
20260507033730 56 304 0.0 0.0 0.00 0.00 0.00 84 1009.7
20260507032730 56 304 0.0 0.0 0.00 0.00 0.00 84 1009.5
20260507032229 56 304 0.0 0.0 0.00 0.00 0.00 84 1009.5
20260507031729 56 304 0.0 0.0 0.00 0.00 0.00 84 1009.6
20260507031229 56 304 0.0 0.0 0.00 0.00 0.00 84 1009.5
20260507030730 56 304 0.0 0.0 0.00 0.00 0.00 84 1009.5
20260507030229 56 304 0.0 3.0 0.00 0.00 0.00 84 1009.5
20260507030004 56 304 2.0 6.0 0.00 0.00 0.00 84 1009.4
20260507025239 56 304 4.0 7.0 0.00 0.00 0.00 84 1009.4
20260507024733 56 305 3.0 7.0 0.00 0.00 0.00 84 1009.4
20260507024230 56 40 1.0 4.0 0.00 0.00 0.00 84 1009.4
20260507023730 56 43 0.0 0.0 0.00 0.00 0.00 84 1009.1
20260507023230 56 43 0.0 0.0 0.00 0.00 0.00 84 1009.1
20260507022729 56 43 0.0 0.0 0.00 0.00 0.00 84 1009.1
20260507022230 56 43 0.0 0.0 0.00 0.00 0.00 84 1009.2
20260507021729 56 43 0.0 0.0 0.00 0.00 0.00 84 1009.1
20260507021230 57 43 0.0 0.0 0.00 0.00 0.00 84 1009.1
20260507020729 57 43 0.0 0.0 0.00 0.00 0.00 84 1009.0
20260507020221 57 43 0.0 0.0 0.00 0.00 0.00 84 1009.2
20260507015719 57 43 0.0 0.0 0.00 0.00 0.00 84 1009.1
20260507015449 57 43 0.0 0.0 0.00 0.00 0.00 84 1009.1
20260507014724 57 43 0.0 0.0 0.00 0.00 0.00 84 1009.0
20260507014221 57 43 0.0 0.0 0.00 0.00 0.00 84 1008.9
20260507013716 57 43 0.0 0.0 0.00 0.00 0.00 84 1008.9
20260507013214 57 43 0.0 2.0 0.00 0.00 0.00 84 1008.9
20260507013200 57 43 1.0 4.0 0.00 0.00 0.00 84 1008.9
20260507012210 57 43 1.0 4.0 0.00 0.00 0.00 84 1008.9
20260507011707 57 39 0.0 3.0 0.00 0.00 0.00 84 1008.8
20260507011208 57 39 1.0 5.0 0.00 0.00 0.00 84 1008.9
20260507010706 57 39 1.0 6.0 0.00 0.00 0.00 84 1008.9
20260507010426 56 34 2.0 6.0 0.00 0.00 0.00 84 1008.9
20260507005701 56 37 1.0 4.0 0.00 0.00 0.00 84 1008.8
20260507005422 56 37 0.0 4.0 0.00 0.00 0.00 84 1008.9
20260507004924 56 37 0.0 0.0 0.00 0.00 0.00 84 1008.9
20260507004200 56 37 0.0 0.0 0.00 0.00 0.00 84 1008.8
20260507003648 57 37 0.0 0.0 0.00 0.00 0.00 84 1008.9
20260507003148 57 37 0.0 0.0 0.00 0.00 0.00 84 1008.8
20260507002642 57 37 0.0 3.0 0.00 0.00 0.00 83 1008.9
20260507002129 57 37 1.0 4.0 0.00 0.00 0.00 84 1008.9
20260507001628 58 37 1.0 4.0 0.00 0.00 0.00 84 1008.9
20260507001121 58 34 1.0 4.0 0.00 0.00 0.00 84 1009.0
20260507000626 58 355 0.0 4.0 0.00 0.00 0.00 84 1008.9
20260507000120 58 355 1.0 5.0 0.00 0.00 0.00 84 1009.0
20260506235845 58 355 1.0 5.0 0.00 0.00 0.00 84 1009.0
20260506235120 58 355 1.0 4.0 0.00 0.00 0.00 84 1009.1
20260506234618 58 355 1.0 4.0 0.00 0.00 0.00 84 1009.3
20260506234116 58 355 1.0 5.0 0.00 0.00 0.00 84 1009.2
20260506233614 58 9 2.0 5.0 0.00 0.00 0.00 84 1009.2
20260506233114 58 0 1.0 5.0 0.00 0.00 0.00 84 1009.3
20260506232611 58 346 1.0 4.0 0.00 0.00 0.00 83 1009.4
20260506232109 58 346 2.0 5.0 0.00 0.00 0.00 83 1009.3
20260506231607 58 346 2.0 5.0 0.00 0.00 0.00 83 1009.4
20260506231106 58 0 1.0 4.0 0.00 0.00 0.00 84 1009.4
20260506230834 58 14 1.0 5.0 0.00 0.00 0.00 83 1009.3
20260506225601 58 342 1.0 6.0 0.00 0.00 0.00 83 1009.2
20260506225325 58 335 1.0 6.0 0.00 0.00 0.00 83 1009.4
20260506224602 58 336 1.0 6.0 0.00 0.00 0.00 83 1009.2
20260506224101 59 296 0.0 4.0 0.00 0.00 0.00 83 1009.3
20260506223601 59 296 2.0 7.0 0.00 0.00 0.00 83 1009.2
20260506223322 59 296 2.0 7.0 0.00 0.00 0.00 82 1009.2
20260506222550 59 306 1.0 5.0 0.00 0.00 0.00 82 1009.1
20260506222037 60 302 1.0 4.0 0.00 0.00 0.00 81 1009.0
20260506221530 60 302 0.0 3.0 0.00 0.00 0.00 80 1008.9
20260506221030 60 301 0.0 3.0 0.00 0.00 0.00 80 1008.8
20260506220524 60 301 0.0 3.0 0.00 0.00 0.00 79 1008.8
20260506220017 60 299 0.0 2.0 0.00 0.00 0.00 79 1008.9
20260506215508 60 299 2.0 8.0 0.00 0.00 0.00 79 1009.0
20260506215002 61 299 4.0 8.0 0.00 0.00 0.00 78 1009.0
20260506214459 61 298 4.0 9.0 0.00 0.00 0.00 78 1008.9
20260506213959 61 290 4.0 10.0 0.00 0.00 0.00 77 1008.9
20260506213721 62 292 4.0 10.0 0.00 0.00 0.00 76 1008.8
20260506212959 62 304 4.0 11.0 0.00 0.00 0.00 74 1008.7
20260506212457 62 321 6.0 15.0 0.00 0.00 0.00 74 1008.6
20260506211957 62 301 7.0 15.0 0.00 0.00 0.00 73 1008.6
20260506211458 62 318 5.0 15.0 0.00 0.00 0.00 73 1008.5
20260506211000 61 305 3.0 8.0 0.00 0.00 0.00 74 1008.5
20260506210458 60 232 0.0 5.0 0.00 0.00 0.00 76 1008.4
20260506205953 60 222 0.0 0.0 0.00 0.00 0.00 76 1008.1
20260506205451 60 222 0.0 0.0 0.00 0.00 0.00 76 1008.1
20260506204949 60 222 0.0 0.0 0.00 0.00 0.00 75 1008.0
20260506204713 60 222 0.0 0.0 0.00 0.00 0.00 75 1008.1
20260506203945 61 222 0.0 0.0 0.00 0.00 0.00 75 1008.1
20260506203444 61 222 0.0 0.0 0.00 0.00 0.00 74 1008.1
20260506203203 61 222 0.0 0.0 0.00 0.00 0.00 74 1008.1
20260506202439 61 222 0.0 0.0 0.00 0.00 0.00 74 1008.1
20260506202200 61 222 0.0 0.0 0.00 0.00 0.00 74 1008.1
20260506201435 61 222 0.0 0.0 0.00 0.00 0.00 74 1008.1
20260506200934 60 222 0.0 0.0 0.00 0.00 0.00 74 1008.2
20260506200430 60 222 0.0 0.0 0.00 0.00 0.00 74 1008.2
20260506195929 60 222 0.0 0.0 0.00 0.00 0.00 74 1008.1
20260506195423 60 222 0.0 0.0 0.00 0.00 0.00 74 1008.1
20260506194922 61 222 0.0 0.0 0.00 0.00 0.00 73 1008.1
20260506194416 61 222 0.0 0.0 0.00 0.00 0.00 72 1008.1
20260506193910 61 222 0.0 0.0 0.00 0.00 0.00 72 1008.1
20260506193856 61 222 0.0 0.0 0.00 0.00 0.00 72 1008.1
20260506192858 61 222 0.0 0.0 0.00 0.00 0.00 72 1008.1
20260506192357 61 222 0.0 0.0 0.00 0.00 0.00 71 1008.0
20260506191856 62 222 0.0 0.0 0.00 0.00 0.00 70 1007.9
20260506191625 62 222 0.0 0.0 0.00 0.00 0.00 69 1008.0
20260506190851 62 222 0.0 0.0 0.00 0.00 0.00 68 1007.9
20260506190353 62 222 0.0 0.0 0.00 0.00 0.00 67 1008.0
20260506185851 63 222 0.0 0.0 0.00 0.00 0.00 66 1008.0
20260506185349 63 222 0.0 0.0 0.00 0.00 0.00 65 1007.9
20260506184848 64 222 0.0 0.0 0.00 0.00 0.00 63 1007.8
20260506184347 65 222 0.0 0.0 0.00 0.00 0.00 62 1007.8
20260506183847 65 222 0.0 0.0 0.00 0.00 0.00 62 1007.8
20260506183609 66 222 0.0 0.0 0.00 0.00 0.00 61 1007.8
20260506183107 66 222 0.0 0.0 0.00 0.00 0.00 60 1007.7
20260506182608 67 222 0.0 0.0 0.00 0.00 0.00 57 1007.7
20260506181839 68 222 0.0 0.0 0.00 0.00 0.00 56 1007.7
20260506181339 68 222 0.0 0.0 0.00 0.00 0.00 55 1007.7
20260506180839 69 222 0.0 0.0 0.00 0.00 0.00 54 1007.7
20260506180337 70 222 0.0 0.0 0.00 0.00 0.00 53 1007.6
20260506175833 70 222 0.0 0.0 0.00 0.00 0.00 52 1007.5
20260506175333 71 222 0.0 2.0 0.00 0.00 0.00 52 1007.5
20260506174832 71 222 0.0 3.0 0.00 0.00 0.00 51 1007.5
20260506174601 72 222 0.0 3.0 0.00 0.00 0.00 50 1007.5
20260506173828 72 222 0.0 2.0 0.00 0.00 0.00 50 1007.5
20260506173322 72 222 0.0 3.0 0.00 0.00 0.00 50 1007.6
20260506172816 72 222 1.0 4.0 0.00 0.00 0.00 49 1007.6
20260506172309 73 222 2.0 6.0 0.00 0.00 0.00 49 1007.5
20260506171809 73 223 3.0 6.0 0.00 0.00 0.00 48 1007.5
20260506171540 74 235 2.0 5.0 0.00 0.00 0.00 48 1007.4
20260506170809 74 235 2.0 5.0 0.00 0.00 0.00 47 1007.5
20260506170309 74 233 1.0 4.0 0.00 0.00 0.00 48 1007.5
20260506165808 73 233 1.0 4.0 0.00 0.00 0.00 49 1007.4
20260506165307 73 232 0.0 2.0 0.00 0.00 0.00 49 1007.5
20260506164807 72 232 0.0 3.0 0.00 0.00 0.00 49 1007.6
20260506164305 72 232 1.0 4.0 0.00 0.00 0.00 49 1007.6
20260506163804 72 232 1.0 4.0 0.00 0.00 0.00 49 1007.6
20260506163532 72 232 2.0 7.0 0.00 0.00 0.00 49 1007.6
20260506162804 72 232 3.0 7.0 0.00 0.00 0.00 49 1007.7
20260506162306 72 244 3.0 7.0 0.00 0.00 0.00 48 1007.8
20260506161802 72 254 3.0 6.0 0.00 0.00 0.00 48 1007.8
20260506161303 73 255 3.0 8.0 0.00 0.00 0.00 48 1007.8
20260506160801 73 240 2.0 8.0 0.00 0.00 0.00 47 1007.9
20260506160300 73 236 2.0 6.0 0.00 0.00 0.00 48 1007.9
20260506155802 73 251 3.0 8.0 0.00 0.00 0.00 47 1007.9
20260506155258 73 219 4.0 9.0 0.00 0.00 0.00 47 1008.0
20260506155024 73 211 4.0 8.0 0.00 0.00 0.00 46 1008.0
20260506154250 73 230 5.0 12.0 0.00 0.00 0.00 46 1008.1
20260506153743 74 234 5.0 12.0 0.00 0.00 0.00 46 1008.1
20260506153237 74 219 4.0 10.0 0.00 0.00 0.00 46 1008.1
20260506152737 74 230 4.0 10.0 0.00 0.00 0.00 46 1008.1
20260506152237 74 252 4.0 9.0 0.00 0.00 0.00 46 1008.2
20260506151737 74 205 4.0 9.0 0.00 0.00 0.00 45 1008.2
20260506151235 74 217 4.0 10.0 0.00 0.00 0.00 46 1008.3
20260506151004 74 252 5.0 10.0 0.00 0.00 0.00 45 1008.2
20260506150501 74 281 5.0 9.0 0.00 0.00 0.00 44 1008.2
20260506145729 75 321 5.0 10.0 0.00 0.00 0.00 44 1008.2
20260506145230 75 252 5.0 10.0 0.00 0.00 0.00 43 1008.2
20260506144729 75 273 4.0 10.0 0.00 0.00 0.00 43 1008.3
20260506144230 75 283 5.0 13.0 0.00 0.00 0.00 44 1008.4
20260506143729 75 198 6.0 13.0 0.00 0.00 0.00 43 1008.3
20260506143229 75 169 6.0 14.0 0.00 0.00 0.00 43 1008.3
20260506142729 76 217 7.0 15.0 0.00 0.00 0.00 42 1008.3
20260506142228 76 196 7.0 15.0 0.00 0.00 0.00 42 1008.3
20260506141729 76 259 6.0 14.0 0.00 0.00 0.00 43 1008.3
20260506141229 75 225 5.0 15.0 0.00 0.00 0.00 43 1008.4
20260506140729 75 276 6.0 15.0 0.00 0.00 0.00 44 1008.4
20260506140455 75 281 6.0 15.0 0.00 0.00 0.00 43 1008.4
20260506135728 75 233 6.0 15.0 0.00 0.00 0.00 44 1008.4
20260506135228 75 224 5.0 14.0 0.00 0.00 0.00 45 1008.5
20260506134728 75 237 5.0 12.0 0.00 0.00 0.00 44 1008.5
20260506134229 75 229 5.0 12.0 0.00 0.00 0.00 44 1008.5
20260506133729 75 288 5.0 12.0 0.00 0.00 0.00 44 1008.5
20260506133229 76 302 5.0 12.0 0.00 0.00 0.00 43 1008.5
20260506132731 75 256 5.0 14.0 0.00 0.00 0.00 45 1008.6
20260506132726 75 162 6.0 14.0 0.00 0.00 0.00 45 1008.4
20260506131729 75 227 7.0 15.0 0.00 0.00 0.00 45 1008.6
20260506131229 74 233 8.0 22.0 0.00 0.00 0.00 46 1008.6
20260506130729 74 191 8.0 22.0 0.00 0.00 0.00 46 1008.6
20260506130457 74 218 6.0 14.0 0.00 0.00 0.00 47 1008.5
20260506125729 74 248 7.0 14.0 0.00 0.00 0.00 47 1008.6
20260506125457 74 245 7.0 14.0 0.00 0.00 0.00 46 1008.6
20260506124729 74 213 7.0 14.0 0.00 0.00 0.00 47 1008.6
20260506124222 75 223 7.0 14.0 0.00 0.00 0.00 45 1008.6
20260506123716 76 259 7.0 16.0 0.00 0.00 0.00 46 1008.7
20260506123202 76 269 6.0 16.0 0.00 0.00 0.00 46 1008.8
20260506122701 75 234 5.0 14.0 0.00 0.00 0.00 47 1008.6
20260506122200 74 90 5.0 11.0 0.00 0.00 0.00 48 1008.6
20260506121701 74 244 6.0 15.0 0.00 0.00 0.00 48 1008.7
20260506121436 75 234 7.0 15.0 0.00 0.00 0.00 47 1008.7
20260506120701 75 273 5.0 14.0 0.00 0.00 0.00 48 1008.7
20260506120200 74 197 6.0 13.0 0.00 0.00 0.00 51 1008.6
20260506115701 74 222 6.0 13.0 0.00 0.00 0.00 48 1008.6
20260506115655 74 252 6.0 12.0 0.00 0.00 0.00 49 1008.5
20260506114701 74 179 7.0 15.0 0.00 0.00 0.00 48 1008.6
20260506114654 75 196 7.0 15.0 0.00 0.00 0.00 48 1008.5
20260506113701 74 225 5.0 13.0 0.00 0.00 0.00 49 1008.5
20260506113211 74 222 6.0 19.0 0.00 0.00 0.00 49 1008.5
20260506112659 74 158 6.0 19.0 0.00 0.00 0.00 50 1008.5
20260506112143 74 275 7.0 20.0 0.00 0.00 0.00 50 1008.6
20260506111905 74 257 7.0 20.0 0.00 0.00 0.00 50 1008.6
20260506111133 74 235 6.0 17.0 0.00 0.00 0.00 49 1008.7
20260506110637 74 248 7.0 17.0 0.00 0.00 0.00 48 1008.7
20260506110136 73 285 7.0 16.0 0.00 0.00 0.00 49 1008.7
20260506105633 74 209 8.0 16.0 0.00 0.00 0.00 50 1008.8